Location: Newark
(15.4608°S, 41.1635°W)
Time: 23:05:40
(UTC+00:00)

Transit 4A - Pass Details

Date: 07 March 2021
Orbit: 869 x 975 km, 66.8° (Epoch: 16 April)

Event Time Altitude Azimuth Distance (km) Brightness Sun altitude
Rises 22:44:13 0° 345° (NNW) 3,443 10.9 -24.6°
Reaches altitude 10° 22:46:42 10° 348° (NNW) 2,505 10.1 -25.1°
Enters shadow 22:51:21 56° 16° (NNE) 1,026 7.9 -26.2°
Maximum altitude 22:52:26 69° 70° (ENE) 928 - -26.5°
Drops below altitude 10° 22:58:14 10° 153° (SSE) 2,535 - -27.9°
Sets 23:00:45 0° 155° (SSE) 3,487 - -28.4°
